| time (UTC) | temp C | wind direction | speed KPH | gust KPH | rain 1hr cm | rain 24hr cm | rain mn cm | humidity % | barometer mb |
| 20260509075542 | 21 | 93 | 1.6 | 3.2 | 0.00 | 0.00 | 0.00 | 87 | 1008.7 |
| 20260509075040 | 21 | 104 | 1.6 | 1.6 | 0.00 | 0.00 | 0.00 | 88 | 1008.9 |
| 20260509074537 | 21 | 101 | 0.0 | 0.0 | 0.00 | 0.00 | 0.00 | 88 | 1009.2 |
| 20260509074034 | 20 | 103 | 1.6 | 1.6 | 0.00 | 0.00 | 0.00 | 88 | 1009.4 |
| 20260509073530 | 20 | 112 | 0.0 | 0.0 | 0.00 | 0.00 | 0.00 | 89 | 1009.5 |
| 20260509073027 | 20 | 103 | 1.6 | 1.6 | 0.00 | 0.00 | 0.00 | 89 | 1009.8 |
| 20260509072523 | 20 | 116 | 0.0 | 0.0 | 0.00 | 0.00 | 0.00 | 88 | 1010.0 |
| 20260509072020 | 20 | 117 | 0.0 | 0.0 | 0.00 | 0.00 | 0.00 | 88 | 1010.0 |
| 20260509071517 | 20 | 97 | 0.0 | 0.0 | 0.00 | 0.00 | 0.00 | 88 | 1010.1 |
| 20260509071014 | 20 | 99 | 1.6 | 1.6 | 0.00 | 0.00 | 0.00 | 88 | 1010.1 |
| 20260509070512 | 20 | 100 | 0.0 | 0.0 | 0.00 | 0.00 | 0.00 | 88 | 1010.3 |
| 20260509070008 | 20 | 100 | 0.0 | 0.0 | 0.00 | 0.00 | 0.00 | 88 | 1010.3 |
| 20260509065503 | 20 | 121 | 0.0 | 0.0 | 0.00 | 0.00 | 0.00 | 87 | 1010.3 |
| 20260509064959 | 20 | 125 | 0.0 | 0.0 | 0.00 | 0.00 | 0.00 | 87 | 1010.3 |
| 20260509064457 | 20 | 135 | 0.0 | 0.0 | 0.00 | 0.00 | 0.00 | 87 | 1010.3 |
| 20260509063955 | 20 | 137 | 0.0 | 0.0 | 0.00 | 0.00 | 0.00 | 86 | 1010.5 |
| 20260509063450 | 20 | 136 | 1.6 | 1.6 | 0.00 | 0.00 | 0.00 | 86 | 1010.4 |
| 20260509062948 | 20 | 123 | 1.6 | 1.6 | 0.00 | 0.00 | 0.00 | 86 | 1010.2 |
| 20260509062445 | 20 | 119 | 1.6 | 1.6 | 0.00 | 0.00 | 0.00 | 86 | 1010.1 |
| 20260509061943 | 20 | 111 | 0.0 | 0.0 | 0.00 | 0.00 | 0.00 | 86 | 1009.7 |
| 20260509061439 | 20 | 115 | 1.6 | 1.6 | 0.00 | 0.00 | 0.00 | 85 | 1009.7 |
| 20260509060937 | 20 | 110 | 0.0 | 0.0 | 0.00 | 0.00 | 0.00 | 85 | 1009.7 |
| 20260509060434 | 20 | 111 | 1.6 | 1.6 | 0.00 | 0.00 | 0.00 | 85 | 1009.5 |
| 20260509055929 | 21 | 61 | 1.6 | 1.6 | 0.00 | 0.00 | 0.00 | 85 | 1009.9 |
| 20260509055425 | 21 | 101 | 0.0 | 0.0 | 0.00 | 0.00 | 0.00 | 85 | 1009.7 |
| 20260509054921 | 21 | 60 | 0.0 | 0.0 | 0.00 | 0.00 | 0.00 | 84 | 1009.5 |
| 20260509054418 | 21 | 123 | 0.0 | 0.0 | 0.00 | 0.00 | 0.00 | 85 | 1009.6 |
| 20260509053916 | 20 | 101 | 1.6 | 1.6 | 0.00 | 0.00 | 0.00 | 85 | 1009.8 |
| 20260509053414 | 21 | 106 | 0.0 | 0.0 | 0.00 | 0.00 | 0.00 | 84 | 1010.3 |
| 20260509052912 | 21 | 103 | 0.0 | 0.0 | 0.00 | 0.00 | 0.00 | 84 | 1010.3 |
| 20260509052409 | 21 | 103 | 0.0 | 0.0 | 0.00 | 0.00 | 0.00 | 85 | 1010.6 |
| 20260509051907 | 20 | 103 | 0.0 | 0.0 | 0.00 | 0.00 | 0.00 | 86 | 1010.8 |
| 20260509051405 | 20 | 103 | 0.0 | 0.0 | 0.00 | 0.00 | 0.00 | 85 | 1011.1 |
| 20260509050901 | 20 | 103 | 0.0 | 0.0 | 0.00 | 0.00 | 0.00 | 85 | 1010.7 |
| 20260509050358 | 20 | 103 | 0.0 | 0.0 | 0.00 | 0.00 | 0.00 | 85 | 1010.8 |
| 20260509045854 | 20 | 103 | 0.0 | 0.0 | 0.00 | 0.58 | 0.58 | 86 | 1011.3 |
| 20260509045351 | 20 | 124 | 0.0 | 0.0 | 0.00 | 0.58 | 0.58 | 86 | 1011.4 |
| 20260509044848 | 21 | 121 | 0.0 | 1.6 | 0.00 | 0.58 | 0.58 | 84 | 1011.0 |
| 20260509044346 | 21 | 109 | 0.0 | 0.0 | 0.00 | 0.58 | 0.58 | 83 | 1010.5 |
| 20260509043843 | 21 | 108 | 0.0 | 0.0 | 0.00 | 0.58 | 0.58 | 82 | 1010.3 |
| 20260509043339 | 21 | 109 | 0.0 | 0.0 | 0.00 | 0.58 | 0.58 | 81 | 1010.1 |
| 20260509042835 | 21 | 107 | 0.0 | 0.0 | 0.00 | 0.58 | 0.58 | 80 | 1009.9 |
| 20260509042331 | 21 | 106 | 0.0 | 1.6 | 0.00 | 0.58 | 0.58 | 80 | 1010.1 |
| 20260509041828 | 21 | 103 | 0.0 | 0.0 | 0.00 | 0.58 | 0.58 | 80 | 1010.0 |
| 20260509041325 | 21 | 85 | 1.6 | 1.6 | 0.00 | 0.58 | 0.58 | 79 | 1009.9 |
| 20260509040823 | 21 | 109 | 0.0 | 0.0 | 0.00 | 0.58 | 0.58 | 79 | 1009.5 |
| 20260509040320 | 21 | 102 | 1.6 | 3.2 | 0.00 | 0.58 | 0.58 | 79 | 1009.2 |
| 20260509035817 | 21 | 114 | 1.6 | 1.6 | 0.00 | 0.58 | 0.58 | 78 | 1009.1 |
| 20260509035315 | 21 | 102 | 1.6 | 1.6 | 0.00 | 0.58 | 0.58 | 78 | 1009.6 |
| 20260509034810 | 21 | 117 | 0.0 | 0.0 | 0.00 | 0.58 | 0.58 | 78 | 1009.4 |
| 20260509034309 | 21 | 106 | 0.0 | 0.0 | 0.00 | 0.58 | 0.58 | 77 | 1009.0 |
| 20260509033805 | 22 | 150 | 0.0 | 1.6 | 0.00 | 0.58 | 0.58 | 77 | 1009.0 |
| 20260509033302 | 22 | 105 | 1.6 | 3.2 | 0.00 | 0.58 | 0.58 | 78 | 1009.6 |
| 20260509032759 | 22 | 119 | 3.2 | 6.4 | 0.00 | 0.58 | 0.58 | 76 | 1010.0 |
| 20260509032256 | 22 | 93 | 0.0 | 0.0 | 0.00 | 0.58 | 0.58 | 76 | 1011.1 |
| 20260509031753 | 22 | 93 | 0.0 | 0.0 | 0.00 | 0.58 | 0.58 | 75 | 1010.8 |
| 20260509031251 | 22 | 93 | 0.0 | 0.0 | 0.00 | 0.58 | 0.58 | 75 | 1010.5 |
| 20260509030749 | 22 | 101 | 0.0 | 0.0 | 0.00 | 0.58 | 0.58 | 75 | 1010.3 |
| 20260509030246 | 22 | 102 | 0.0 | 0.0 | 0.00 | 0.58 | 0.58 | 75 | 1010.5 |
| 20260509025743 | 22 | 94 | 0.0 | 0.0 | 0.00 | 0.58 | 0.58 | 75 | 1010.3 |
| 20260509025238 | 22 | 105 | 0.0 | 0.0 | 0.00 | 0.58 | 0.58 | 75 | 1010.2 |
| 20260509024734 | 22 | 120 | 0.0 | 0.0 | 0.00 | 0.58 | 0.58 | 75 | 1010.1 |
| 20260509024230 | 22 | 97 | 0.0 | 0.0 | 0.00 | 0.58 | 0.58 | 75 | 1009.9 |
| 20260509023728 | 22 | 93 | 0.0 | 0.0 | 0.00 | 0.58 | 0.58 | 75 | 1009.8 |
| 20260509023225 | 22 | 93 | 0.0 | 0.0 | 0.00 | 0.58 | 0.58 | 75 | 1009.9 |
| 20260509022720 | 22 | 93 | 0.0 | 0.0 | 0.00 | 0.58 | 0.58 | 75 | 1009.6 |
| 20260509022219 | 22 | 94 | 0.0 | 0.0 | 0.00 | 0.58 | 0.58 | 75 | 1009.5 |
| 20260509021715 | 22 | 129 | 0.0 | 0.0 | 0.00 | 0.58 | 0.58 | 76 | 1009.2 |
| 20260509021213 | 22 | 107 | 0.0 | 0.0 | 0.00 | 0.58 | 0.58 | 75 | 1008.7 |
| 20260509020711 | 22 | 97 | 1.6 | 1.6 | 0.00 | 0.58 | 0.58 | 74 | 1008.6 |
| 20260509020207 | 22 | 101 | 0.0 | 1.6 | 0.00 | 0.58 | 0.58 | 74 | 1008.5 |
| 20260509015706 | 22 | 107 | 1.6 | 1.6 | 0.00 | 0.58 | 0.58 | 73 | 1008.6 |
| 20260509015203 | 22 | 106 | 0.0 | 0.0 | 0.00 | 0.58 | 0.58 | 72 | 1008.7 |
| 20260509014700 | 22 | 100 | 1.6 | 1.6 | 0.00 | 0.58 | 0.58 | 72 | 1008.7 |
| 20260509014156 | 22 | 107 | 3.2 | 3.2 | 0.00 | 0.58 | 0.58 | 72 | 1008.5 |
| 20260509013653 | 22 | 100 | 1.6 | 1.6 | 0.00 | 0.58 | 0.58 | 71 | 1008.5 |
| 20260509013149 | 22 | 107 | 0.0 | 0.0 | 0.00 | 0.58 | 0.58 | 71 | 1008.5 |
| 20260509012645 | 22 | 91 | 0.0 | 0.0 | 0.00 | 0.58 | 0.58 | 70 | 1008.5 |
| 20260509012143 | 23 | 93 | 0.0 | 0.0 | 0.00 | 0.58 | 0.58 | 70 | 1008.6 |
| 20260509011641 | 23 | 106 | 1.6 | 1.6 | 0.00 | 0.58 | 0.58 | 70 | 1008.5 |
| 20260509011138 | 23 | 119 | 0.0 | 1.6 | 0.00 | 0.58 | 0.58 | 70 | 1008.5 |
| 20260509010635 | 23 | 97 | 1.6 | 1.6 | 0.00 | 0.58 | 0.58 | 69 | 1008.8 |
| 20260509010131 | 23 | 103 | 1.6 | 1.6 | 0.00 | 0.58 | 0.58 | 69 | 1008.6 |
| 20260509005629 | 23 | 117 | 1.6 | 3.2 | 0.00 | 0.58 | 0.58 | 69 | 1008.6 |
| 20260509005125 | 23 | 109 | 1.6 | 1.6 | 0.00 | 0.58 | 0.58 | 68 | 1008.6 |
| 20260509004621 | 23 | 104 | 1.6 | 1.6 | 0.00 | 0.58 | 0.58 | 68 | 1008.4 |
| 20260509004118 | 23 | 121 | 1.6 | 1.6 | 0.00 | 0.58 | 0.58 | 68 | 1008.3 |
| 20260509003617 | 23 | 101 | 3.2 | 4.8 | 0.00 | 0.58 | 0.58 | 67 | 1008.1 |
| 20260509003114 | 23 | 131 | 1.6 | 1.6 | 0.00 | 0.58 | 0.58 | 67 | 1007.9 |
| 20260509002611 | 23 | 100 | 0.0 | 0.0 | 0.00 | 0.58 | 0.58 | 67 | 1008.1 |
| 20260509002108 | 23 | 107 | 1.6 | 1.6 | 0.00 | 0.58 | 0.58 | 66 | 1008.1 |
| 20260509001606 | 24 | 126 | 1.6 | 3.2 | 0.00 | 0.58 | 0.58 | 65 | 1008.2 |
| 20260509001101 | 24 | 115 | 1.6 | 1.6 | 0.00 | 0.58 | 0.58 | 65 | 1008.1 |
| 20260509000600 | 24 | 103 | 1.6 | 3.2 | 0.00 | 0.58 | 0.58 | 65 | 1008.0 |
| 20260509000056 | 25 | 161 | 3.2 | 4.8 | 0.00 | 0.58 | 0.58 | 63 | 1008.3 |
| 20260508235554 | 25 | 93 | 0.0 | 1.6 | 0.00 | 0.58 | 0.58 | 64 | 1008.2 |
| 20260508235050 | 25 | 111 | 3.2 | 3.2 | 0.00 | 0.58 | 0.58 | 63 | 1008.2 |
| 20260508234547 | 25 | 115 | 1.6 | 1.6 | 0.00 | 0.58 | 0.58 | 62 | 1008.3 |
| 20260508234044 | 25 | 151 | 1.6 | 1.6 | 0.00 | 0.58 | 0.58 | 61 | 1008.3 |
| 20260508233543 | 26 | 99 | 1.6 | 1.6 | 0.00 | 0.58 | 0.58 | 60 | 1008.4 |
| 20260508233040 | 26 | 87 | 1.6 | 1.6 | 0.00 | 0.58 | 0.58 | 58 | 1008.5 |
| 20260508232537 | 26 | 153 | 1.6 | 3.2 | 0.00 | 0.58 | 0.58 | 58 | 1008.4 |
| 20260508232034 | 27 | 111 | 3.2 | 3.2 | 0.00 | 0.58 | 0.58 | 57 | 1008.5 |
| 20260508231532 | 27 | 132 | 3.2 | 4.8 | 0.00 | 0.58 | 0.58 | 56 | 1008.5 |
| 20260508231029 | 27 | 111 | 0.0 | 1.6 | 0.00 | 0.58 | 0.58 | 57 | 1008.3 |
| 20260508230525 | 27 | 110 | 1.6 | 3.2 | 0.00 | 0.58 | 0.58 | 56 | 1008.4 |
| 20260508230022 | 26 | 132 | 0.0 | 0.0 | 0.00 | 0.58 | 0.58 | 60 | 1008.4 |
| 20260508225519 | 26 | 129 | 1.6 | 1.6 | 0.00 | 0.58 | 0.58 | 60 | 1008.5 |
| 20260508225016 | 26 | 118 | 3.2 | 4.8 | 0.00 | 0.58 | 0.58 | 59 | 1008.4 |
| 20260508224514 | 27 | 83 | 3.2 | 4.8 | 0.00 | 0.58 | 0.58 | 57 | 1008.4 |
| 20260508224011 | 27 | 15 | 1.6 | 1.6 | 0.00 | 0.58 | 0.58 | 56 | 1008.7 |
| 20260508223509 | 28 | 114 | 1.6 | 1.6 | 0.00 | 0.58 | 0.58 | 54 | 1008.5 |
| 20260508223006 | 28 | 131 | 1.6 | 1.6 | 0.00 | 0.58 | 0.58 | 53 | 1008.6 |
| 20260508222503 | 28 | 120 | 0.0 | 1.6 | 0.00 | 0.58 | 0.58 | 54 | 1008.6 |
| 20260508221959 | 27 | 104 | 0.0 | 0.0 | 0.00 | 0.58 | 0.58 | 54 | 1008.6 |
| 20260508221455 | 27 | 107 | 0.0 | 0.0 | 0.00 | 0.58 | 0.58 | 54 | 1008.5 |
| 20260508220952 | 28 | 120 | 1.6 | 1.6 | 0.00 | 0.58 | 0.58 | 53 | 1008.5 |
| 20260508220448 | 27 | 116 | 1.6 | 1.6 | 0.00 | 0.58 | 0.58 | 55 | 1008.5 |
| 20260508215944 | 27 | 97 | 0.0 | 0.0 | 0.00 | 0.58 | 0.58 | 56 | 1008.5 |
| 20260508215442 | 27 | 129 | 1.6 | 1.6 | 0.00 | 0.58 | 0.58 | 53 | 1008.6 |
| 20260508214938 | 28 | 132 | 1.6 | 1.6 | 0.00 | 0.58 | 0.58 | 51 | 1008.4 |
| 20260508214436 | 28 | 102 | 3.2 | 4.8 | 0.00 | 0.58 | 0.58 | 51 | 1008.5 |
| 20260508213932 | 28 | 100 | 1.6 | 3.2 | 0.00 | 0.58 | 0.58 | 51 | 1008.3 |
| 20260508213430 | 28 | 71 | 1.6 | 6.4 | 0.00 | 0.58 | 0.58 | 53 | 1008.5 |
| 20260508212925 | 28 | 138 | 3.2 | 3.2 | 0.00 | 0.58 | 0.58 | 52 | 1008.4 |
| 20260508212422 | 27 | 109 | 3.2 | 3.2 | 0.00 | 0.58 | 0.58 | 54 | 1008.5 |
| 20260508211917 | 28 | 82 | 3.2 | 3.2 | 0.00 | 0.58 | 0.58 | 53 | 1008.7 |
| 20260508211414 | 27 | 99 | 1.6 | 3.2 | 0.00 | 0.58 | 0.58 | 55 | 1008.7 |
| 20260508210911 | 27 | 116 | 1.6 | 3.2 | 0.00 | 0.58 | 0.58 | 52 | 1009.0 |
| 20260508210407 | 27 | 119 | 3.2 | 4.8 | 0.00 | 0.58 | 0.58 | 52 | 1009.2 |
| 20260508205903 | 27 | 125 | 1.6 | 1.6 | 0.00 | 0.58 | 0.58 | 55 | 1009.3 |
| 20260508205401 | 27 | 31 | 1.6 | 1.6 | 0.00 | 0.58 | 0.58 | 57 | 1009.5 |
| 20260508204857 | 27 | 176 | 4.8 | 4.8 | 0.00 | 0.58 | 0.58 | 54 | 1009.8 |
| 20260508204354 | 27 | 165 | 3.2 | 3.2 | 0.00 | 0.58 | 0.58 | 54 | 1010.0 |
| 20260508203849 | 27 | 98 | 1.6 | 1.6 | 0.00 | 0.58 | 0.58 | 55 | 1009.9 |
| 20260508203346 | 27 | 96 | 3.2 | 4.8 | 0.00 | 0.58 | 0.58 | 55 | 1010.0 |
| 20260508202842 | 27 | 115 | 3.2 | 3.2 | 0.00 | 0.58 | 0.58 | 54 | 1010.0 |
| 20260508202340 | 27 | 168 | 3.2 | 3.2 | 0.00 | 0.58 | 0.58 | 54 | 1010.1 |
| 20260508201837 | 27 | 136 | 0.0 | 1.6 | 0.00 | 0.58 | 0.58 | 52 | 1010.2 |
| 20260508201334 | 27 | 111 | 3.2 | 3.2 | 0.00 | 0.58 | 0.58 | 51 | 1010.2 |
| 20260508200830 | 27 | 98 | 3.2 | 3.2 | 0.00 | 0.58 | 0.58 | 51 | 1010.5 |
| 20260508200327 | 27 | 105 | 1.6 | 1.6 | 0.00 | 0.58 | 0.58 | 51 | 1010.2 |
| 20260508195822 | 27 | 103 | 1.6 | 1.6 | 0.00 | 0.58 | 0.58 | 49 | 1010.3 |
| 20260508195319 | 28 | 117 | 1.6 | 1.6 | 0.00 | 0.58 | 0.58 | 49 | 1010.5 |
| 20260508194816 | 28 | 106 | 3.2 | 3.2 | 0.00 | 0.58 | 0.58 | 52 | 1010.6 |
| 20260508194313 | 28 | 137 | 1.6 | 1.6 | 0.00 | 0.58 | 0.58 | 48 | 1010.5 |
| 20260508193810 | 28 | 89 | 4.8 | 4.8 | 0.00 | 0.58 | 0.58 | 46 | 1010.5 |
| 20260508193307 | 28 | 114 | 1.6 | 3.2 | 0.00 | 0.58 | 0.58 | 48 | 1010.6 |
| 20260508192803 | 29 | 134 | 3.2 | 3.2 | 0.00 | 0.58 | 0.58 | 46 | 1010.5 |
| 20260508192300 | 28 | 126 | 1.6 | 1.6 | 0.00 | 0.58 | 0.58 | 49 | 1010.6 |
| 20260508191757 | 29 | 108 | 1.6 | 1.6 | 0.00 | 0.58 | 0.58 | 47 | 1010.5 |
| 20260508191254 | 29 | 121 | 1.6 | 1.6 | 0.00 | 0.58 | 0.58 | 49 | 1010.6 |
| 20260508190752 | 29 | 138 | 1.6 | 1.6 | 0.00 | 0.58 | 0.58 | 52 | 1010.8 |
| 20260508190247 | 29 | 135 | 3.2 | 3.2 | 0.00 | 0.58 | 0.58 | 48 | 1010.8 |
| 20260508185743 | 28 | 89 | 1.6 | 1.6 | 0.00 | 0.58 | 0.58 | 51 | 1010.9 |
| 20260508185241 | 28 | 120 | 0.0 | 0.0 | 0.00 | 0.58 | 0.58 | 49 | 1010.9 |
| 20260508184738 | 27 | 90 | 3.2 | 4.8 | 0.00 | 0.58 | 0.58 | 49 | 1010.7 |
| 20260508184236 | 28 | 130 | 0.0 | 1.6 | 0.00 | 0.58 | 0.58 | 48 | 1011.0 |
| 20260508183733 | 28 | 98 | 0.0 | 0.0 | 0.00 | 0.58 | 0.58 | 53 | 1010.9 |
| 20260508183229 | 28 | 118 | 1.6 | 3.2 | 0.00 | 0.58 | 0.58 | 49 | 1011.0 |
| 20260508182725 | 27 | 112 | 1.6 | 1.6 | 0.00 | 0.58 | 0.58 | 49 | 1011.3 |
| 20260508182222 | 27 | 131 | 0.0 | 0.0 | 0.00 | 0.58 | 0.58 | 53 | 1011.2 |
| 20260508181718 | 27 | 100 | 3.2 | 3.2 | 0.00 | 0.58 | 0.58 | 49 | 1011.6 |
| 20260508181215 | 27 | 103 | 1.6 | 3.2 | 0.00 | 0.58 | 0.58 | 49 | 1011.6 |
| 20260508180711 | 27 | 134 | 3.2 | 3.2 | 0.00 | 0.58 | 0.58 | 50 | 1011.8 |
| 20260508180208 | 27 | 174 | 1.6 | 1.6 | 0.00 | 0.58 | 0.58 | 52 | 1011.7 |
| 20260508175705 | 27 | 105 | 0.0 | 0.0 | 0.00 | 0.58 | 0.58 | 51 | 1012.0 |
| 20260508175201 | 26 | 124 | 3.2 | 3.2 | 0.00 | 0.58 | 0.58 | 52 | 1011.8 |
| 20260508174659 | 26 | 99 | 1.6 | 1.6 | 0.00 | 0.58 | 0.58 | 51 | 1012.0 |
| 20260508174155 | 26 | 133 | 1.6 | 1.6 | 0.00 | 0.58 | 0.58 | 53 | 1011.9 |
| 20260508173652 | 26 | 116 | 1.6 | 1.6 | 0.00 | 0.58 | 0.58 | 52 | 1012.2 |
| 20260508173148 | 26 | 103 | 1.6 | 1.6 | 0.00 | 0.58 | 0.58 | 54 | 1012.2 |
| 20260508172646 | 25 | 109 | 1.6 | 1.6 | 0.00 | 0.58 | 0.58 | 55 | 1012.4 |
| 20260508172143 | 25 | 118 | 1.6 | 3.2 | 0.00 | 0.58 | 0.58 | 53 | 1012.6 |
| 20260508171639 | 25 | 165 | 1.6 | 3.2 | 0.00 | 0.58 | 0.58 | 53 | 1012.5 |
| 20260508171135 | 26 | 100 | 4.8 | 9.7 | 0.00 | 0.58 | 0.58 | 51 | 1012.6 |
| 20260508170633 | 25 | 128 | 1.6 | 3.2 | 0.00 | 0.58 | 0.58 | 54 | 1012.7 |
| 20260508170130 | 25 | 107 | 1.6 | 1.6 | 0.00 | 0.58 | 0.58 | 56 | 1013.0 |
| 20260508165627 | 25 | 96 | 0.0 | 1.6 | 0.00 | 0.58 | 0.58 | 57 | 1013.2 |
| 20260508165124 | 25 | 95 | 1.6 | 3.2 | 0.00 | 0.58 | 0.58 | 56 | 1013.4 |
| 20260508164620 | 24 | 106 | 0.0 | 0.0 | 0.00 | 0.58 | 0.58 | 58 | 1013.2 |
| 20260508164117 | 23 | 112 | 1.6 | 1.6 | 0.00 | 0.58 | 0.58 | 56 | 1013.4 |
| 20260508163615 | 22 | 132 | 1.6 | 1.6 | 0.00 | 0.58 | 0.58 | 64 | 1013.5 |
| 20260508163112 | 21 | 129 | 0.0 | 1.6 | 0.00 | 0.58 | 0.58 | 62 | 1013.6 |
| 20260508162608 | 21 | 99 | 1.6 | 1.6 | 0.00 | 0.58 | 0.58 | 63 | 1013.6 |
| 20260508162105 | 21 | 100 | 1.6 | 1.6 | 0.00 | 0.58 | 0.58 | 64 | 1013.5 |
| 20260508161602 | 22 | 112 | 1.6 | 1.6 | 0.00 | 0.58 | 0.58 | 65 | 1013.4 |
| 20260508161059 | 21 | 90 | 1.6 | 1.6 | 0.00 | 0.58 | 0.58 | 65 | 1013.7 |
| 20260508160558 | 21 | 123 | 0.0 | 0.0 | 0.00 | 0.58 | 0.58 | 70 | 1013.8 |
| 20260508160054 | 21 | 102 | 0.0 | 0.0 | 0.00 | 0.58 | 0.58 | 68 | 1013.9 |
| 20260508155552 | 21 | 111 | 1.6 | 1.6 | 0.00 | 0.58 | 0.58 | 69 | 1013.9 |
| 20260508155048 | 21 | 102 | 1.6 | 1.6 | 0.00 | 0.58 | 0.58 | 68 | 1013.7 |
| 20260508154545 | 21 | 94 | 0.0 | 0.0 | 0.00 | 0.58 | 0.58 | 70 | 1014.2 |
| 20260508154042 | 21 | 79 | 3.2 | 3.2 | 0.00 | 0.58 | 0.58 | 69 | 1014.0 |
| 20260508153539 | 20 | 104 | 0.0 | 0.0 | 0.00 | 0.58 | 0.58 | 70 | 1014.2 |
| 20260508153036 | 20 | 131 | 1.6 | 1.6 | 0.00 | 0.58 | 0.58 | 68 | 1014.2 |
| 20260508152533 | 21 | 129 | 0.0 | 0.0 | 0.00 | 0.58 | 0.58 | 69 | 1014.3 |
| 20260508152028 | 21 | 100 | 0.0 | 1.6 | 0.00 | 0.58 | 0.58 | 68 | 1014.1 |
| 20260508151525 | 21 | 110 | 0.0 | 0.0 | 0.00 | 0.58 | 0.58 | 68 | 1014.2 |
| 20260508151022 | 21 | 108 | 0.0 | 0.0 | 0.00 | 0.58 | 0.58 | 68 | 1014.2 |
| 20260508150519 | 20 | 107 | 0.0 | 0.0 | 0.00 | 0.58 | 0.58 | 73 | 1014.2 |
| 20260508150014 | 20 | 99 | 1.6 | 1.6 | 0.00 | 0.58 | 0.58 | 71 | 1014.3 |
| 20260508145512 | 19 | 48 | 3.2 | 4.8 | 0.00 | 0.58 | 0.58 | 73 | 1014.2 |
| 20260508145008 | 18 | 109 | 0.0 | 0.0 | 0.00 | 0.58 | 0.58 | 77 | 1014.3 |
| 20260508144505 | 19 | 119 | 1.6 | 1.6 | 0.00 | 0.58 | 0.58 | 74 | 1014.3 |
| 20260508144003 | 19 | 107 | 0.0 | 0.0 | 0.00 | 0.58 | 0.58 | 74 | 1014.4 |
| 20260508143500 | 20 | 101 | 0.0 | 0.0 | 0.00 | 0.58 | 0.58 | 73 | 1014.8 |
| 20260508142956 | 20 | 105 | 0.0 | 0.0 | 0.00 | 0.58 | 0.58 | 75 | 1014.3 |
| 20260508142454 | 18 | 115 | 1.6 | 3.2 | 0.00 | 0.58 | 0.58 | 77 | 1014.4 |
| 20260508141950 | 18 | 93 | 1.6 | 3.2 | 0.00 | 0.58 | 0.58 | 79 | 1014.3 |
| 20260508141447 | 18 | 101 | 0.0 | 0.0 | 0.00 | 0.58 | 0.58 | 80 | 1014.6 |
| 20260508140945 | 18 | 104 | 0.0 | 0.0 | 0.00 | 0.58 | 0.58 | 79 | 1014.5 |
| 20260508140441 | 18 | 114 | 0.0 | 0.0 | 0.00 | 0.58 | 0.58 | 80 | 1014.7 |
| 20260508135937 | 18 | 102 | 0.0 | 1.6 | 0.00 | 0.58 | 0.58 | 83 | 1014.6 |
| 20260508135433 | 18 | 101 | 0.0 | 0.0 | 0.00 | 0.58 | 0.58 | 82 | 1014.6 |
| 20260508134930 | 17 | 114 | 0.0 | 0.0 | 0.00 | 0.58 | 0.58 | 84 | 1014.6 |
| 20260508134427 | 17 | 109 | 1.6 | 1.6 | 0.00 | 0.58 | 0.58 | 84 | 1014.7 |
| 20260508133923 | 17 | 102 | 0.0 | 0.0 | 0.00 | 0.58 | 0.58 | 85 | 1014.5 |
| 20260508133421 | 17 | 108 | 3.2 | 3.2 | 0.00 | 0.58 | 0.58 | 84 | 1014.5 |
| 20260508132918 | 17 | 102 | 0.0 | 1.6 | 0.00 | 0.58 | 0.58 | 86 | 1014.8 |
| 20260508132416 | 17 | 98 | 0.0 | 0.0 | 0.00 | 0.58 | 0.58 | 88 | 1014.6 |
| 20260508131912 | 17 | 117 | 0.0 | 0.0 | 0.00 | 0.58 | 0.58 | 87 | 1014.7 |
| 20260508131408 | 16 | 101 | 0.0 | 0.0 | 0.00 | 0.58 | 0.58 | 89 | 1014.8 |
| 20260508130905 | 16 | 106 | 3.2 | 3.2 | 0.00 | 0.58 | 0.58 | 91 | 1014.3 |
| 20260508130402 | 16 | 103 | 1.6 | 3.2 | 0.00 | 0.58 | 0.58 | 93 | 1014.1 |
| 20260508125857 | 16 | 107 | 0.0 | 0.0 | 0.00 | 0.58 | 0.58 | 94 | 1014.2 |
| 20260508125353 | 16 | 78 | 1.6 | 1.6 | 0.00 | 0.58 | 0.58 | 94 | 1014.5 |
| 20260508124852 | 15 | 111 | 0.0 | 0.0 | 0.00 | 0.58 | 0.58 | 94 | 1014.0 |
| 20260508124349 | 15 | 90 | 1.6 | 3.2 | 0.00 | 0.58 | 0.58 | 94 | 1014.5 |
| 20260508123847 | 15 | 102 | 0.0 | 0.0 | 0.00 | 0.58 | 0.58 | 94 | 1014.8 |
| 20260508123345 | 15 | 102 | 0.0 | 0.0 | 0.00 | 0.58 | 0.58 | 94 | 1015.4 |
| 20260508122841 | 15 | 102 | 0.0 | 0.0 | 0.00 | 0.58 | 0.58 | 94 | 1015.0 |
| 20260508122338 | 15 | 102 | 0.0 | 0.0 | 0.00 | 0.58 | 0.58 | 94 | 1015.0 |
| 20260508121835 | 15 | 102 | 0.0 | 0.0 | 0.00 | 0.58 | 0.58 | 94 | 1014.7 |
| 20260508121334 | 15 | 102 | 0.0 | 0.0 | 0.00 | 0.58 | 0.58 | 94 | 1014.7 |
| 20260508120831 | 15 | 102 | 0.0 | 0.0 | 0.00 | 0.58 | 0.58 | 93 | 1014.8 |
| 20260508120329 | 15 | 102 | 0.0 | 0.0 | 0.00 | 0.58 | 0.58 | 93 | 1014.7 |
| 20260508115826 | 15 | 102 | 0.0 | 0.0 | 0.13 | 0.58 | 0.58 | 93 | 1014.8 |
| 20260508115323 | 15 | 95 | 0.0 | 0.0 | 0.43 | 0.58 | 0.58 | 93 | 1014.9 |
| 20260508114820 | 15 | 109 | 0.0 | 0.0 | 0.30 | 0.56 | 0.56 | 93 | 1014.7 |
| 20260508114317 | 15 | 102 | 0.0 | 0.0 | 0.00 | 0.51 | 0.51 | 93 | 1014.9 |
| 20260508113813 | 15 | 102 | 0.0 | 0.0 | 0.48 | 0.51 | 0.51 | 92 | 1014.6 |
| 20260508113312 | 15 | 107 | 3.2 | 3.2 | 0.97 | 0.51 | 0.51 | 92 | 1014.3 |
| 20260508112807 | 15 | 131 | 0.0 | 0.0 | 0.48 | 0.43 | 0.43 | 92 | 1014.2 |
| 20260508112307 | 15 | 92 | 0.0 | 0.0 | 0.13 | 0.36 | 0.36 | 92 | 1014.3 |
| 20260508111801 | 15 | 114 | 0.0 | 0.0 | 0.13 | 0.36 | 0.36 | 91 | 1013.9 |
| 20260508111259 | 15 | 109 | 0.0 | 0.0 | 0.00 | 0.33 | 0.33 | 91 | 1013.9 |
| 20260508110756 | 15 | 103 | 0.0 | 1.6 | 0.00 | 0.33 | 0.33 | 89 | 1014.3 |
| 20260508110253 | 15 | 126 | 1.6 | 1.6 | 0.18 | 0.33 | 0.33 | 89 | 1014.2 |
| 20260508105753 | 15 | 108 | 1.6 | 1.6 | 0.18 | 0.33 | 0.33 | 90 | 1014.5 |
| 20260508105250 | 15 | 100 | 1.6 | 1.6 | 0.13 | 0.30 | 0.30 | 90 | 1014.4 |
| 20260508104747 | 15 | 75 | 0.0 | 1.6 | 0.43 | 0.30 | 0.30 | 89 | 1014.7 |
| 20260508104244 | 15 | 107 | 0.0 | 1.6 | 0.61 | 0.28 | 0.28 | 89 | 1014.7 |
| 20260508103741 | 16 | 103 | 0.0 | 1.6 | 0.61 | 0.23 | 0.23 | 88 | 1014.9 |
| 20260508103238 | 16 | 105 | 1.6 | 1.6 | 1.07 | 0.18 | 0.18 | 87 | 1014.5 |
| 20260508102735 | 16 | 112 | 0.0 | 0.0 | 0.79 | 0.13 | 0.13 | 85 | 1014.3 |
| 20260508102233 | 16 | 108 | 1.6 | 3.2 | 0.00 | 0.00 | 0.00 | 83 | 1014.2 |
| 20260508101730 | 16 | 122 | 0.0 | 0.0 | 0.00 | 0.00 | 0.00 | 83 | 1014.9 |
| 20260508101228 | 16 | 103 | 0.0 | 0.0 | 0.00 | 0.00 | 0.00 | 84 | 1014.3 |
| 20260508100725 | 16 | 103 | 0.0 | 0.0 | 0.00 | 0.00 | 0.00 | 83 | 1013.8 |
| 20260508100223 | 16 | 103 | 0.0 | 0.0 | 0.00 | 0.00 | 0.00 | 84 | 1013.6 |
| 20260508095719 | 16 | 100 | 0.0 | 0.0 | 0.00 | 0.00 | 0.00 | 84 | 1013.3 |
| 20260508095217 | 16 | 117 | 0.0 | 0.0 | 0.00 | 0.00 | 0.00 | 84 | 1013.5 |
| 20260508094713 | 16 | 92 | 1.6 | 1.6 | 0.00 | 0.00 | 0.00 | 84 | 1013.5 |
| 20260508094210 | 15 | 101 | 0.0 | 0.0 | 0.00 | 0.00 | 0.00 | 83 | 1013.6 |
| 20260508093707 | 15 | 127 | 0.0 | 0.0 | 0.00 | 0.00 | 0.00 | 83 | 1013.4 |
| 20260508093205 | 15 | 107 | 0.0 | 0.0 | 0.00 | 0.00 | 0.00 | 83 | 1013.7 |
| 20260508092702 | 15 | 106 | 0.0 | 0.0 | 0.00 | 0.00 | 0.00 | 82 | 1013.7 |
| 20260508092200 | 15 | 105 | 0.0 | 0.0 | 0.00 | 0.00 | 0.00 | 82 | 1013.8 |
| 20260508091657 | 16 | 101 | 0.0 | 0.0 | 0.00 | 0.00 | 0.00 | 82 | 1013.7 |
| 20260508091154 | 16 | 109 | 0.0 | 0.0 | 0.00 | 0.00 | 0.00 | 82 | 1013.7 |
| 20260508090652 | 16 | 101 | 0.0 | 0.0 | 0.00 | 0.00 | 0.00 | 82 | 1013.6 |
| 20260508090149 | 16 | 104 | 0.0 | 0.0 | 0.00 | 0.00 | 0.00 | 82 | 1014.1 |
| 20260508085645 | 16 | 107 | 0.0 | 0.0 | 0.00 | 0.00 | 0.00 | 81 | 1013.8 |
| 20260508085143 | 16 | 103 | 1.6 | 1.6 | 0.00 | 0.00 | 0.00 | 81 | 1014.0 |
| 20260508084639 | 16 | 108 | 0.0 | 0.0 | 0.00 | 0.00 | 0.00 | 81 | 1014.2 |
| 20260508084136 | 16 | 105 | 0.0 | 0.0 | 0.00 | 0.00 | 0.00 | 81 | 1014.3 |
| 20260508083634 | 16 | 104 | 0.0 | 0.0 | 0.00 | 0.00 | 0.00 | 81 | 1014.7 |
| 20260508083131 | 16 | 124 | 0.0 | 0.0 | 0.00 | 0.00 | 0.00 | 80 | 1014.9 |
| 20260508082626 | 16 | 111 | 0.0 | 0.0 | 0.00 | 0.00 | 0.00 | 80 | 1014.1 |
| 20260508082124 | 16 | 113 | 0.0 | 0.0 | 0.00 | 0.00 | 0.00 | 79 | 1013.9 |
| 20260508081621 | 16 | 122 | 1.6 | 1.6 | 0.00 | 0.00 | 0.00 | 79 | 1014.7 |
| 20260508081117 | 16 | 109 | 0.0 | 0.0 | 0.00 | 0.00 | 0.00 | 79 | 1014.4 |
| 20260508080615 | 16 | 97 | 0.0 | 1.6 | 0.00 | 0.00 | 0.00 | 79 | 1014.4 |
| 20260508080113 | 16 | 111 | 1.6 | 1.6 | 0.00 | 0.00 | 0.00 | 79 | 1014.5 |
| 20260508075609 | 16 | 97 | 1.6 | 1.6 | 0.00 | 0.00 | 0.00 | 78 | 1015.1 |